Погода в Кочках

Россия / Новосибирская область     54°20′04″N   80°29′06″E
темп.,
°C
ветер,
м/с
пор.,
м/с
влажн.,
%
обл.,
%
осадки,
мм/ч
давл.,
гПа
погр.,
м
8 марта, пн
пн801:00−8ююв5119598 0.0 1018260
04:00−5ю61493100 0.0 1015361
07:00−5ю71491100 0.0 1013369
10:00−5ю71587100 0.0 1010393
13:00−3ю91584100 0.0 1007522
16:00−3ююз81585100 0.0 1006774
19:00−1зюз81396100 0.8 1008894
22:00−8зсз61291100 0.6 1013480
9 марта, вт
вт901:00−14з5109459 0.6 1019193
04:00−16зюз499571 0.0 1022182
07:00−17юз599347 0.0 1024162
10:00−15ююз6139350 0.0 1025299
13:00−10ююз7138170 0.0 1024501
16:00−8ююз714802 0.0 1023553
19:00−10ююз5128539 0.0 1022285
22:00−13ююз512860 0.0 1022236
10 марта, ср
ср1001:00−13ююз512854 0.0 1020238
04:00−14ююз5108825 0.0 1019156
07:00−13ююз488958 0.0 1019148
10:00−11ю478898 0.0 1018167
13:00−7ю468699 0.0 1016250
16:00−5юв5892100 0.0 1012318
19:00−2юв71394100 0.0 1007640
22:000ю101797100 0.9 1002812
11 марта, чт
чт1101:00+2ююз816100100 1.8 999587
04:00−1юз121786100 0.6 1000892
07:00−10зюз91690100 0.8 1007638
10:00−11юз71393100 0.0 1010384
13:00−8юз71292100 0.1 1011568
16:00−7юз81388100 0.1 1013856
19:00−8юз71488100 0.1 1014632
22:00−10ююз6148958 0.0 1016420
12 марта, пт
пт1201:00−9ю6148974 0.1 1014487
04:00−7ююз81593100 1.2 1011965
07:00−14зюз8158899 1.3 1014662
10:00−16юз81591100 0.0 1018595
13:00−16юз81390100 0.1 1020639
16:00−15зюз71289100 0.1 1020739
19:00−16зюз61292100 0.1 1021691
22:00−19з41296100 0.1 1025451